Location: Helsinki
(60.1699°N, 24.9384°E)
Time: 19:50:59
(UTC+02:00)

Transit 4A - Pass Details

Date: 31 October 2020
Orbit: 862 x 982 km, 66.8° (Epoch: 29 November)

Event Time Altitude Azimuth Distance (km) Brightness Sun altitude
Rises 16:02:07 0° 221° (SW) 3,627 12.9 1.6°
Reaches altitude 10° 16:04:38 10° 220° (SW) 2,698 12.0 1.4°
Maximum altitude 16:10:57 77° 136° (SE) 1,007 8.2 0.7°
Drops below altitude 10° 16:17:24 10° 52° (NE) 2,748 9.7 0.0°
Enters shadow 16:19:58 - 51° (NE) 3,690 10.3 -0.3°
Sets 16:19:59 0° 51° (NE) 3,698 - -0.3°
